www.pogodaiklimat.ru

Погода и климат >> Архив погоды >> Россия >> Якутия >> Мыс Быков


ПОГОДА на Мысе Быков

  • Прогноз погоды на Мысе Быков
  • Монитор погоды на Мысе Быков

АРХИВ ПОГОДЫ на Мысе Быков

Время (UTC), дата Ветер
(напр.,м/с)
 
Видим.   Явления Облачность Т
(С)
Тd
(С)
f
(%)
Тe
(С)
Тes
(С)
Комфортность P
(гПа)
Po
(гПа)
Тmin
(С)
Tmax
(С)
R
(мм)
R24
(мм)
S
(см)
21 15.09 СЗ 3 20 км 10/10 600 м
[Sc]
+3.8 +2.3 90 -0 -0 1009.3 1007.3
00 16.09 СЗ 3 4000 м слаб. морось 10/10 300 м
[St]
+3.2 +2.2 93 -1 -1 1010.8 1008.8 +3.1 0.0
03 16.09 СЗ 4 4000 м дымка 10/10 300 м
[Sc]
+3.4 +2.1 91 -1 -1 1010.3 1008.3
06 16.09 СЗ 2 2000 м слаб. дождь {морось} 10/10 300 м
[St]
+4.4 +3.4 93 +2 +2 1010.1 1008.1
09 16.09 СЗ 2 2000 м слаб. дождь 10/10 300 м
[Sc]
+5.0 +4.1 94 +2 +2 1009.7 1007.7
12 16.09 ЮЗ 1 4000 м слаб. дождь 10/10 300 м
[Sc]
+4.1 +2.6 90 +3 +3 1010.9 1008.9 +5.0 2
15 16.09 ЮЗ 2 20 км {дождь} 10/6 300 м
[Sc Ac und]
+4.0 +2.5 90 +1 +1 1010.9 1008.9
18 16.09 Ю 2 20 км {дождь} 10/6 300 м
[Sc Ac und]
+4.2 +2.5 89 +1 +1 1011.3 1009.3
21 16.09 Ю 2 20 км 10/8 300 м
[Sc Ac und]
+3.9 +1.9 87 +1 +1 1011.9 1009.9
00 17.09 ЮЗ 4 20 км 8/8 600 м
[Sc]
+3.8 +1.2 83 -1 -1 1015.0 1013.0 +3.3 0.0
03 17.09 ЮЗ 2 20 км 4/0
[Ci fib]
+5.6 +1.9 77 +3 +5 1016.1 1014.1
06 17.09 ЮВ 2 20 км 10/10 300 м
[Sc]
+5.5 +1.8 77 +3 +3 1017.5 1015.5
09 17.09 В 4 20 км 10/10 600 м
[Sc]
+5.3 +1.3 75 +1 +1 1018.9 1016.9
12 17.09 В 5 20 км 10/10 600 м
[Sc]
+4.3 +1.5 82 -1 -1 1020.0 1018.0 +6.3
15 17.09 В 4 20 км 10/10 600 м
[Sc]
+3.3 -0.2 78 -1 -1 1020.1 1018.1
18 17.09 В 5 20 км 10/10 600 м
[Sc]
+2.8 -0.8 77 -2 -2 1020.1 1018.1
21 17.09 СВ 6
{10}
20 км 10/10 600 м
[Sc]
+3.2 +0.6 83 -2 -2 1020.3 1018.3
00 18.09 В 6
{10}
20 км 10/10 600 м
[Sc]
+3.1 +1.3 88 -3 -3 1019.9 1017.9 +2.7
03 18.09 СВ 6 20 км 10/6 600 м
[Sc Ac und]
+4.1 +2.1 87 -1 -1 1019.0 1017.0
06 18.09 СВ 7 20 км 10/10 600 м
[Sc]
+4.7 +2.5 86 -1 -1 1018.3 1016.3
09 18.09 В 6 20 км 10/10 600 м
[Sc]
+5.1 +4.2 94 -0 -0 1017.8 1015.8
12 18.09 В 7 20 км 10/10 600 м
[Sc]
+3.9 +3.4 97 -2 -2 1016.6 1014.6 +3.9
15 18.09 ЮВ 7 20 км 10/10 600 м
[Sc]
+4.2 +3.0 92 -2 -2 1015.7 1013.7
18 18.09 В 7
{10}
20 км 10/10
[Sc]
+3.5 +2.8 95 -3 -3 1014.6 1012.6
21 18.09 ЮВ 6 4000 м слаб. морось 10/10 300 м
[St]
+3.4 +2.7 95 -2 -2 1013.7 1011.7
00 19.09 ЮВ 9-11
{11}
20 км {морось} 10/10 300 м
[St]
+3.7 +2.2 90 -3 -3 1015.4 1013.4 +3.2 0.0
03 19.09 ЮВ 8-10
{11}
20 км 10/10 300 м
[Sc]
+4.0 +2.5 90 -2 -2 1016.1 1014.1
06 19.09 ЮВ 7
{11}
4000 м слаб. морось 10/10 300 м
[St]
+3.9 +2.7 92 -2 -2 1015.8 1013.8
09 19.09 ЮВ 7
{11}
4000 м слаб. морось 10/10 300 м
[St]
+4.3 +2.8 90 -2 -2 1015.4 1013.4
12 19.09 ЮВ 8-10
{12}
20 км {морось} 10/10 300 м
[St]
+4.7 +3.2 90 -1 -1 1015.7 1013.7 +4.9 0.0
15 19.09 ЮВ 8-10
{11}
20 км 10/10 300 м
[Sc]
+4.9 +3.5 91 -1 -1 1016.1 1014.1
18 19.09 ЮВ 7
{12}
20 км 10/10 300 м
[St]
+4.9 +3.0 87 -1 -1 1015.3 1013.3
21 19.09 ЮВ 9-11
{13}
20 км 10/10 300 м
[Sc]
+5.3 +3.6 89 -1 -1 1014.9 1012.9
00 20.09 Ю 3
{11}
20 км 3/3 300 м
[Sc]
+5.0 +2.3 83 +2 +2 1015.9 1013.9 +3.3
03 20.09 ЮВ 5 20 км 3/3 300 м
[Sc]
+5.8 +2.9 82 +1 +2 1015.6 1013.6
06 20.09 ЮВ 4 20 км ясно +5.7 +2.5 80 +2 +3 1015.0 1013.0
09 20.09 ЮВ 6 20 км 3/3 300 м
[Sc Ci fib]
+5.0 +2.8 86 -0 -0 1014.6 1012.6
12 20.09 ЮВ 5 500 м туман 10/10 300 м
[St]
+3.8 +3.1 95 -1 -1 1014.6 1012.6 +6.1
15 20.09 ЮВ 4 500 м туман 10/10 300 м
[St]
+3.0 +2.2 94 -2 -2 1013.7 1011.7
18 20.09 ЮВ 5 500 м туман 10/10 300 м
[St]
+4.1 +3.4 95 -1 -1 1013.1 1011.1
21 20.09 ЮВ 4 20 км {туман} 10/10 300 м
[St]
+3.2 +2.4 94 -2 -2 1012.7 1010.7
00 21.09 ЮВ 4 20 км {туман} 10/10 300 м
[St]
+3.9 +3.2 95 -1 -1 1012.5 1010.5 +2.9
03 21.09 ЮВ 5 20 км 10/10 600 м
[St]
+4.4 +2.7 89 -1 -1 1011.4 1009.4
06 21.09 ЮВ 5 20 км 10/10 600 м
[St]
+2.6 +1.6 93 -3 -3 1010.6 1008.6
09 21.09 ЮВ 6 20 км 10/10 600 м
[St]
+1.8 +0.7 92 -4 -4 1009.9 1007.9
12 21.09 Ю 5 20 км туман 10/10 600 м
[St]
+1.5 +1.0 96 -4 -4 1008.2 1006.2 +4.4
15 21.09 Ю 4 500 м туман 10/10
[St]
+1.2 +0.7 96 -4 -4 1007.3 1005.3
18 21.09 Ю 5 500 м туман 10/10 600 м
[St]
+1.0 +0.2 94 -5 -5 1006.9 1004.9
21 21.09 Ю 3 500 м туман 10/10 600 м
[St]
+1.5 +0.7 94 -3 -3 1005.9 1003.9
00 22.09 Ю 4 2000 м дымка {туман} 10/10 300 м
[St]
+2.4 +1.6 94 -3 -3 1004.1 1002.1 +1.0
03 22.09 Ю 3 4000 м дымка 10/10 300 м
[St]
+2.7 +1.4 91 -2 -2 1002.2 1000.2
06 22.09 Ю 4 4000 м дымка 10/10 300 м
[St]
+4.6 +2.1 84 0 0 1000.1 998.1
09 22.09 Ю 4 4000 м слаб. дождь 10/10 300 м
[St]
+4.2 +2.5 89 -0 -0 999.1 997.1
12 22.09 Ю 6 4000 м слаб. дождь 10/10 300 м
[Sc]
+3.0 +1.0 87 -3 -3 1000.8 999.8 +4.8 0.4
15 22.09 Ю 3 4000 м дымка {дождь} 10/10 300 м
[Sc]
+2.6 +1.3 91 -2 -2 900.9 998.9

 

Местоположение метеостанции Мыс Быков (Якутия, Россия): широта 72.00 долгота 129.10 высота над уровнем моря 16 м.

В архиве по умолчанию представлена погода на Мысе Быков за последнюю неделю. Архивные данные за месяц целиком и за предыдущие месяцы, начиная с января 2011 года, Вы можете получить, выбрав интересующий диапазон дат из раскрывающегося списка и нажав кнопку "Ввод!".


*Определитесь, кто Вы:
робот инопланетянин человек

Внимание! Время в таблицах - всемирное. Для получения местного времени необходимо прибавить поправку, которая равна 9 ч.

Смотрите также архив погоды в соседних городах и на ближайших метеорологических станциях:

Погода в Тикси (Якутия, Россия) (47 км)
Погода на Столб Острове (Якутия, Россия) (105 км)
Погода в Кюсюре (Якутия, Россия) (159 км)
Погода в Тюмяти (Якутия, Россия) (193 км)
Погода в Юбилейной (Якутия, Россия) (287 км)
Погода в Усть-Куйге (Якутия, Россия) (324 км)
Погода на Усть-Оленеке (Якутия, Россия) (330 км)
Погода на Мысе Кигилях (Якутия, Россия) (384 км)
Погода в Джарджане (Якутия, Россия) (410 км)
Погода на Проливе Санникова (Якутия, Россия) (430 км)

Пояснения к столбцам:

Ветер - указаны скорость ветра в м/с - средняя за 10 мин, порывы в срок и между сроками (в фигурных скобках) и направление, откуда дует ветер: С - северный, СВ - северо-восточный, В - восточный, ЮВ - юго-восточный, Ю - южный, ЮЗ - юго-западный, З - западный, СЗ - северо-западный.
Видимость - горизонтальная дальность видимости в метрах или километрах. При видимости от 1 до 10 км при отсутствии осадков обычно наблюдается дымка, при ухудшении видимости до 1 км и менее - туман. В сухую погоду видимость может ухудшаться дымом, пылью или мглою.
Явления - указаны атмосферные явления, наблюдавшиеся в срок или в последний час перед сроком; фигурными скобками обозначены явления, наблюдавшиеся между сроками (за 1-3 часа до срока); квадратными скобками обозначены град или гололедные отложения с указанием их диаметра в мм.
Облачность - указаны через наклонную черту общая и нижняя облачность в баллах и высота нижней границы облаков в метрах; квадратными скобками обозначены формы облаков: Ci - перистые, Cs - перисто-слоистые, Cc - перисто-кучевые, Ac - высококучевые, As - высокослоистые, Sc - слоисто-кучевые, Ns - слоисто-дождевые, Cu - кучевые, Cb - кучево-дождевые. Подробнее классификацию облаков см. в Атласе облаков (PDF).
T - Температура воздуха - температура, измеренная на высоте 2 м над землей.
Td - Температура точки росы - температура, при понижении до которой содержащийся в воздухе водяной пар достигнет насыщения.
f - Относительная влажность воздуха - влажноcть воздуха, измеренная на высоте 2 м над землей.
Te - Эффективная температура - температура, которую ощущает одетый по сезону человек в тени. Характеристика душности погоды. При расчете учитывается влияние влажности воздуха и скорости ветра на теплоощущения человека.
Tes - Эффективная температура на солнце - температура, которую ощущает человек, с поправкой на солнечный нагрев. Характеристика знойности погоды. Зависит от высоты солнца над горизонтом, облачности и скорости ветра. Ночью, в пасмурную погоду, а также при ветре 12 м/с и более поправка равна нулю.
P - Атмосферное давление - приведенное к уровню моря атмосферное давление.
Po - Атмосферное давление - измеренное на уровне метеостанции атмосферное давление.
Tmin - Минимальная температура - минимум температуры воздуха на высоте 2 м над землей.
Tmax - Максимальная температура - максимум температуры воздуха на высоте 2 м над землей.
R - Количество осадков - Количество выпавших осадков за период времени, мм. При наведении курсора мыши на число - период времени, за который выпало указанное количество осадков.
R24 - Количество осадков - Количество выпавших осадков за 24 часа, мм.
S - Снежный покров - Высота снежного покрова, см. При наведении курсора мыши на число - состояние снежного покрова и степень покрытия местности в баллах.